Regional Weather Roundup
Issued by NWS

Home | Current Version | Previous Version | Graphics & Text | Print | Product List | Glossary On
Versions: 1 2 3 4 5 6 7 8 9 10 11 12 13 14 15 16 17 18 19 20 21 22 23 24 25 26 27 28 29 30 31 32 33 34 35 36 37 38 39 40 41 42 43 44 45 46 47 48 49 50
000
ASUS43 KDTX 270610
RWRMI
MICHIGAN HOURLY REGIONAL WEATHER ROUNDUP
NATIONAL WEATHER SERVICE DETROIT/PONTIAC MI
200 AM EDT SAT AUG 27 2016

NOTE: "FAIR" INDICATES FEW OR NO CLOUDS BELOW 12,000 FEET WITH NO
SIGNIFICANT WEATHER AND/OR OBSTRUCTION TO VISIBILITY.

MIZ047>049-052>055-059>063-066>070-074>076-081>083-270700-
SOUTHEAST LOWER MICHIGAN

CITY           SKY/WX    TMP DP  RH WIND       PRES   REMARKS
ADRIAN         FAIR      68  66  93 NE3       30.16R
6HR MIN TEMP:  67; 6HR MAX TEMP:  78;

ALMA           FAIR      59  59 100 CALM      30.17R
ANN ARBOR      FAIR      63  63 100 CALM      30.15S
BAD AXE        FOG       60  60 100 CALM      30.15F VSB 1/4
CARO             N/A     60  59  97 CALM      30.14F FOG
DETROIT CITY   FAIR      73  68  84 N5        30.14S
6HR MIN TEMP:  72; 6HR MAX TEMP:  82;

DETROIT        MOCLDY    71  65  81 CALM      30.15S
6HR MIN TEMP:  70; 6HR MAX TEMP:  80;

FLINT          FAIR      66  62  87 CALM      30.16S
6HR MIN TEMP:  65; 6HR MAX TEMP:  80;

GROSSE ILE     FAIR      69  66  89 CALM      30.13S
6HR MIN TEMP:  69; 6HR MAX TEMP:  76;

HILLSDALE      FAIR      65  64  94 CALM      30.16S
6HR MIN TEMP:  51; 6HR MAX TEMP:  84;

HOWELL         FAIR      65  63  94 CALM      30.16S
6HR MIN TEMP:  65; 6HR MAX TEMP:  76;


CITY           SKY/WX    TMP DP  RH WIND       PRES   REMARKS
JACKSON        FAIR      68  65  90 NE5       30.16R
6HR MIN TEMP:  65; 6HR MAX TEMP:  77;

LAMBERTVILLE   FAIR      68  65  92 CALM      30.15S
6HR MIN TEMP:  67; 6HR MAX TEMP:  76;

LANSING        FAIR      64  59  83 CALM      30.16S
6HR MIN TEMP:  64; 6HR MAX TEMP:  78;

LAPEER           N/A     60  59  97 CALM      30.16F FOG
6HR MIN TEMP:  60; 6HR MAX TEMP:  74;

MASON          FAIR      65  62  91 CALM      30.16S
MONROE         FAIR      66  66  99 N6        30.13S FOG
6HR MIN TEMP:  66; 6HR MAX TEMP:  75;

MT. CLEMENS    CLOUDY    68  63  83 N2        30.13S
6HR MIN TEMP:  68; 6HR MAX TEMP:  78;

PONTIAC        FAIR      69  63  81 CALM      30.15F
6HR MIN TEMP:  67; 6HR MAX TEMP:  79;

PORT HURON     FAIR      63  63 100 CALM      30.15F FOG
TRI CITIES     FAIR      63  61  93 NW3       30.16R
6HR MIN TEMP:  63; 6HR MAX TEMP:  76;

MIDLAND        FAIR      59  58  98 CALM      30.15S
6HR MIN TEMP:  59; 6HR MAX TEMP:  71;

TROY           FAIR      73  60  64 CALM      30.16F
SAGINAW HB     FAIR      61  59  94 CALM      30.15R
$$
MIZ043>046-050>051-056>058-064>065-071>073-077>080-270700-
SOUTHWEST LOWER MICHIGAN

CITY           SKY/WX    TMP DP  RH WIND       PRES   REMARKS
BATTLE CREEK   FAIR      65  61  87 E5        30.15F
6HR MIN TEMP:  64; 6HR MAX TEMP:  76;

BENTON HARBOR  MOCLDY    68  59  73 E7        30.11F
6HR MIN TEMP:  67; 6HR MAX TEMP:  73;

BIG RAPIDS     FAIR      58  57  94 CALM      30.17F
6HR MIN TEMP:  58; 6HR MAX TEMP:  72;

COLDWATER      FAIR      68  67  95 NE3       30.14F
6HR MIN TEMP:  67; 6HR MAX TEMP:  74;

FREMONT        FAIR      60  57  90 CALM      30.16F
HOLLAND        FAIR      65  58  78 CALM      30.15S
6HR MIN TEMP:  63; 6HR MAX TEMP:  71;

GRAND RAPIDS   FAIR      62  58  86 NE6       30.15F
6HR MIN TEMP:  62; 6HR MAX TEMP:  75;

IONIA          FAIR      59  57  92 N3        30.15S
6HR MIN TEMP:  59; 6HR MAX TEMP:  73;

KALAMAZOO      FAIR      68  61  78 CALM      30.14S
6HR MIN TEMP:  67; 6HR MAX TEMP:  78;

LUDINGTON      FAIR      58  58  97 CALM      30.15S
6HR MIN TEMP:  56; 6HR MAX TEMP:  67;

MARSHALL       FAIR      66  63  88 CALM      30.15S
MOUNT PLEASANT FAIR      60  58  95 CALM      30.17R
6HR MIN TEMP:  59; 6HR MAX TEMP:  74;

MUSKEGON       FAIR      64  58  80 NE7       30.15F
6HR MIN TEMP:  63; 6HR MAX TEMP:  70;

SOUTH HAVEN    FAIR      65  62  87 E6        30.12F
$$
MIZ016>042-270700-
NORTHERN LOWER MICHIGAN

CITY           SKY/WX    TMP DP  RH WIND       PRES   REMARKS
ALPENA         FAIR      59  56  89 CALM      30.18F
6HR MIN TEMP:  57; 6HR MAX TEMP:  69;

BEAVER ISLAND  FAIR      62  60  95 E5        30.18F
6HR MIN TEMP:  59; 6HR MAX TEMP:  67;

BELLAIRE       FAIR      56  55  95 CALM      30.18S
6HR MIN TEMP:  55; 6HR MAX TEMP:  68;

CADILLAC       FAIR      55  53  92 CALM      30.18S
CHARLEVOIX     FAIR      62  59  91 E5        30.20S
6HR MIN TEMP:  61; 6HR MAX TEMP:  67;

FRANKFORT      FAIR      59  56  91 CALM      30.17R
GAYLORD        FAIR      59  54  83 CALM      30.19F
6HR MIN TEMP:  56; 6HR MAX TEMP:  69;

GRAYLING       FAIR      52  51  97 CALM      30.19F FOG
6HR MIN TEMP:  52; 6HR MAX TEMP:  68;

HARBOR SPRINGS FAIR      59  58  95 NE3       30.18F
HOUGHTON LAKE  FAIR      58  55  90 NE6       30.20R
6HR MIN TEMP:  54; 6HR MAX TEMP:  71;

MANISTEE       FAIR      58  57  97 CALM      30.17R
OSCODA         MOCLDY    66  63  88 NE5       30.16R
6HR MIN TEMP:  65; 6HR MAX TEMP:  73;

PELLSTON       FAIR      54  52  93 CALM      30.19S
6HR MIN TEMP:  54; 6HR MAX TEMP:  67;

ROGERS CITY    FAIR      57  54  91 CALM      30.19S
TRAVERSE CITY  FAIR      60  57  89 CALM      30.16F
6HR MIN TEMP:  60; 6HR MAX TEMP:  72;

$$
MIZ007>008-015-270700-
EASTERN UPPER MICHIGAN

CITY           SKY/WX    TMP DP  RH WIND       PRES   REMARKS
KINROSS        FAIR      60  54  80 NE3       30.19S
6HR MIN TEMP:  59; 6HR MAX TEMP:  64;

MACKINAC ISLAN FAIR      59  54  84 NE3       30.20R
6HR MIN TEMP:  59; 6HR MAX TEMP:  67;

NEWBERRY       CLOUDY    57  56  96 CALM      30.19R
6HR MIN TEMP:  55; 6HR MAX TEMP:  64;

S. S. MARIE    MOCLDY    58  54  86 CALM      30.18S
6HR MIN TEMP:  57; 6HR MAX TEMP:  65;

MUNISING         N/A     56  54  93 SW3       30.17
6HR MIN TEMP:  55; 6HR MAX TEMP:  64;

$$
MIZ004>006-011>014-085-270700-
CENTRAL UPPER MICHIGAN

CITY           SKY/WX    TMP DP  RH WIND       PRES   REMARKS
MANISTIQUE     MOCLDY    60  57  92 NE3       30.17S
6HR MIN TEMP:  60; 6HR MAX TEMP:  65;

ESCANABA       FAIR      63  59  87 NE5       30.15S
6HR MIN TEMP:  58; 6HR MAX TEMP:  68;

MENOMINEE      MOCLDY   N/A N/A N/A N3        30.15F
SAWYER-GWINN   FAIR      52  51  96 CALM      30.18S
6HR MIN TEMP:  51; 6HR MAX TEMP:  62;

$$
MIZ001>003-009>011-084-270700-
WESTERN UPPER MICHIGAN

CITY           SKY/WX    TMP DP  RH WIND       PRES   REMARKS
IRON MOUNTAIN  FAIR      57  53  86 CALM      30.16F
6HR MIN TEMP:  55; 6HR MAX TEMP:  68;

HOUGHTON       FAIR      50  47  89 CALM      30.15F
6HR MIN TEMP:  49; 6HR MAX TEMP:  60;

COPPER HARBOR    N/A     54  53  97 SW6       30.16S
6HR MIN TEMP:  54; 6HR MAX TEMP:  62;

IRONWOOD       FAIR      51  50  96 CALM      30.16F
6HR MIN TEMP:  50; 6HR MAX TEMP:  65;

$$

ABBREVIATIONS USED IN REMARKS
   TC - TEMPERATURE IN CELSIUS
  WCI - WIND CHILL INDEX
   HX - HEAT INDEX
  VSB - VISIBILITY





USA.gov is the U.S. government's official web portal to all federal, state and local government web resources and services.